Wind_Speed
57 57 57 57 58 58 59 59 59 59 60 61 62 64 65 66 68 68 69 70 71 73 74 75 77 78 79 80 81 82 83 83 85 86 87 88 89 91 92 94 95 96
59 59 60 60 60 61 62 62 62 62 63 64 65 66 67 68 70 70 72 73 74 75 77 78 79 80 81 83 83 84 84 85 86 88 89 90 91 93 95 96 98 98
61 61 61 62 63 64 64 64 64 64 65 66 67 68 70 70 71 72 74 75 76 77 78 80 81 82 84 84 85 85 86 87 88 89 91 92 93 95 97 99 100 101
63 63 63 64 65 66 66 66 66 67 67 68 69 70 71 72 73 74 76 77 77 79 80 81 83 84 85 86 87 88 88 89 91 92 93 94 96 97 99 101 102 103
64 65 66 67 67 67 67 67 68 69 69 70 71 72 73 73 75 76 77 78 79 80 82 83 84 85 87 88 89 90 91 92 93 94 95 96 98 100 102 104 105 106
66 67 68 69 69 69 69 69 70 71 71 72 73 73 74 75 76 77 78 79 80 82 83 85 86 87 88 90 91 92 93 94 95 96 98 99 100 102 104 106 108 109
68 69 70 70 70 71 71 72 73 73 74 74 75 76 77 78 78 79 81 82 83 84 85 86 87 89 90 92 93 94 95 96 98 99 101 102 104 105 107 108 110 111
70 71 72 72 72 72 73 74 74 75 76 76 77 78 79 80 81 82 83 84 85 86 87 88 90 91 93 94 94 96 97 99 101 102 104 105 106 108 109 111 112 113
72 73 73 73 73 74 74 75 75 76 77 78 79 80 81 82 83 84 85 86 87 88 89 91 92 94 95 95 97 98 100 102 103 104 106 107 109 110 111 113 114 114
74 75 75 74 75 75 76 76 77 78 79 80 80 81 82 83 85 86 87 88 89 90 92 93 94 95 96 98 100 102 103 104 105 106 107 109 111 112 113 114 115 115
76 76 76 76 76 77 78 79 79 80 81 81 82 83 84 85 86 88 89 90 91 93 93 94 95 97 99 101 103 104 105 106 107 108 110 111 112 114 114 115 115 115
78 78 78 79 79 80 80 81 81 82 83 83 84 85 86 87 88 90 91 92 93 94 95 97 98 100 102 103 104 105 106 107 108 110 111 112 113 114 115 115 115 113
80 81 81 81 81 82 82 83 84 84 85 86 86 87 88 89 91 92 94 94 95 97 98 99 101 102 103 104 105 106 107 108 110 111 112 113 114 114 114 114 112 109
83 83 83 83 83 83 84 85 86 86 87 88 88 89 91 93 94 95 96 97 98 99 100 101 102 103 104 105 105 107 108 110 112 113 114 114 114 114 113 111 108 104
84 85 85 85 85 86 86 87 87 88 89 89 90 92 94 95 96 97 98 98 99 100 101 102 103 104 105 106 107 108 110 112 113 114 114 113 113 112 110 106 102 97
86 87 87 87 87 87 87 88 89 90 90 91 92 94 96 97 98 98 99 99 100 100 101 102 103 104 106 107 109 110 111 113 114 114 113 112 110 107 104 99 94 91
89 89 89 88 88 88 89 89 90 91 92 93 94 96 97 98 99 99 99 100 100 101 101 102 104 105 107 108 110 111 112 113 113 112 110 107 104 100 96 92 88 85
91 90 90 90 90 90 90 91 92 93 93 94 96 97 99 100 100 100 99 100 100 101 102 103 104 105 107 108 110 111 112 112 111 108 104 100 96 92 88 84 81 80
91 91 91 91 91 92 92 93 93 94 95 96 97 98 100 100 100 100 100 100 100 101 102 102 103 105 106 108 109 110 110 109 106 102 98 93 88 84 80 77 76 76
91 91 92 92 92 93 93 94 94 95 96 97 98 99 99 100 100 99 99 100 101 101 101 101 102 104 106 107 107 108 107 104 100 96 91 86 81 76 73 72 72 73
93 93 93 93 93 94 94 95 95 96 96 97 98 98 99 99 98 98 99 100 100 100 100 101 103 105 105 105 106 105 102 98 93 88 82 77 74 71 69 68 69 69
94 94 94 94 95 95 95 95 95 96 97 97 97 97 97 96 96 97 99 99 100 100 101 103 104 104 104 104 104 101 97 92 87 81 76 72 69 67 67 66 65 64
95 95 95 95 95 95 95 96 96 96 97 97 96 95 95 94 95 97 98 98 99 101 102 102 102 102 103 103 100 96 92 88 83 78 73 69 67 65 64 63 62 61
97 96 96 96 96 96 97 97 97 97 96 95 94 93 93 94 95 96 97 98 99 100 100 101 102 102 102 99 95 92 90 87 83 78 72 67 64 63 61 60 59 58
96 96 96 96 96 97 97 96 96 95 94 93 92 92 93 94 95 95 95 97 98 98 98 100 101 100 98 95 93 91 89 87 83 77 71 66 62 60 59 58 57 55
97 96 96 96 96 96 95 95 94 94 93 93 93 93 94 94 94 93 93 94 94 95 98 99 98 95 94 93 91 89 87 84 79 74 70 65 61 58 57 56 55 54
Wind_Direction
285 286 287 288 289 290 292 293 294 295 295 296 297 298 299 300 300 301 301 301 302 302 303 304 305 305 306 306 307 307 307 307 308 308 308 308 308 308 308 308 309 309
285 286 288 289 289 291 292 293 294 294 295 296 297 297 298 299 300 300 301 301 302 303 304 304 305 305 306 306 306 307 307 307 307 307 307 307 307 307 307 308 309 309
284 286 287 288 289 290 292 293 293 293 294 295 296 297 298 298 299 300 300 301 302 303 303 304 304 305 305 305 306 306 306 306 305 306 306 307 307 307 308 308 309 310
284 285 286 287 288 289 290 291 291 292 293 294 295 296 297 297 298 299 300 300 301 302 303 303 303 304 304 304 304 305 305 305 305 306 306 307 307 307 308 308 309 310
283 284 285 286 287 288 289 290 290 291 292 293 294 295 295 296 297 298 298 299 300 301 301 302 302 302 303 303 304 304 304 305 305 305 306 306 307 307 308 308 309 310
282 284 285 285 286 287 288 289 289 291 292 292 293 293 294 295 296 296 297 298 299 300 301 301 301 302 302 303 304 304 304 304 304 305 306 306 306 307 308 308 309 310
282 282 283 284 285 286 287 288 289 290 291 291 292 293 293 295 295 296 297 298 299 300 300 301 301 302 302 303 303 303 303 304 304 305 305 306 307 308 308 309 309 310
280 281 281 283 284 285 287 287 288 289 290 291 292 293 294 295 295 296 298 299 299 300 300 300 301 302 302 303 303 303 303 303 304 305 305 306 307 308 308 309 309 310
279 280 281 283 284 285 286 287 287 289 290 291 292 293 294 295 296 297 298 298 299 299 300 300 301 302 302 302 302 302 303 303 304 305 306 306 307 308 308 309 309 310
279 280 282 283 283 284 285 286 287 288 290 291 292 293 294 295 296 296 297 298 298 299 300 301 301 302 302 302 302 303 303 304 304 305 306 306 307 308 309 309 309 310
279 280 281 282 282 283 285 286 287 288 290 291 291 292 293 294 295 296 297 297 298 299 300 300 301 301 301 302 303 303 304 304 305 305 306 307 308 308 309 309 309 310
279 280 280 281 282 283 285 286 287 289 290 290 291 292 293 294 294 295 296 297 298 299 300 300 301 301 302 303 303 304 304 304 305 305 306 307 307 308 308 309 310 311
278 279 280 281 283 284 286 287 288 289 289 290 291 292 293 294 294 295 296 297 298 299 300 300 301 302 303 303 303 304 304 304 304 305 306 306 307 308 309 310 311 310
279 280 281 282 284 285 286 287 288 288 289 290 291 292 293 294 295 296 297 298 299 299 300 301 301 302 302 303 303 303 303 303 304 305 306 307 308 309 310 311 310 309
279 280 281 283 284 285 286 287 288 288 289 291 292 293 293 294 295 297 297 298 299 300 300 301 301 302 302 302 302 303 303 304 305 306 307 308 309 310 310 310 309 307
278 280 281 282 283 284 285 286 287 288 290 291 292 293 294 295 296 297 298 298 299 299 300 300 301 301 302 302 302 303 304 304 305 307 308 309 310 310 310 309 308 306
278 279 281 282 283 284 285 286 287 288 289 291 292 293 294 295 296 297 297 298 298 299 299 300 300 301 302 302 303 304 304 305 306 308 309 310 310 310 310 309 307 304
277 279 280 281 282 284 285 286 287 288 289 290 292 293 294 295 296 296 296 297 297 298 299 300 300 301 302 303 303 304 305 306 308 309 310 310 310 310 309 308 305 303
277 278 279 281 282 283 284 285 286 287 289 290 292 293 294 294 295 295 295 296 297 298 299 299 300 301 302 302 303 304 306 308 309 310 311 311 311 310 309 307 305 303
276 277 279 280 281 282 283 284 285 286 288 290 291 292 293 293 293 294 295 296 297 297 298 299 299 300 301 302 303 305 307 308 310 311 312 312 312 311 309 307 304 303
275 276 278 279 280 281 282 283 284 286 288 289 290 291 292 292 293 293 295 296 296 297 297 298 299 300 301 302 304 306 307 309 312 313 313 313 312 310 308 306 304 302
274 276 278 279 280 280 281 282 284 285 287 288 289 290 291 291 292 293 294 295 296 296 297 298 299 300 302 303 305 307 309 312 314 315 315 313 311 309 308 307 306 305
275 276 278 279 280 280 281 282 284 285 287 288 288 289 289 290 292 293 294 294 295 296 297 297 299 301 302 304 306 309 312 314 316 317 317 315 313 311 311 310 309 309
275 276 278 279 280 280 281 282 284 285 286 286 287 288 289 290 291 292 293 294 294 295 296 298 300 302 304 306 309 312 315 317 318 319 319 317 314 313 312 312 311 311
275 276 278 278 279 279 280 282 283 284 284 285 286 287 288 290 291 291 292 293 294 295 297 300 302 305 308 311 314 317 319 320 320 321 319 317 314 313 312 311 311 310
275 276 277 277 278 278 279 281 281 282 283 284 285 287 288 289 290 290 290 291 293 296 299 302 306 309 312 315 318 320 321 321 319 318 318 315 312 310 309 308 307 305
Height
10804 10803 10803 10802 10800 10799 10798 10797 10795 10793 10790 10788 10786 10783 10781 10779 10777 10775 10773 10770 10768 10765 10762 10759 10756 10753 10750 10747 10744 10741 10738 10734 10730 10725 10721 10719 10713 10709 10705 10700 10697 10694
10798 10798 10797 10795 10794 10792 10792 10791 10789 10787 10784 10782 10780 10777 10775 10773 10770 10768 10765 10762 10760 10757 10754 10752 10748 10745 10742 10739 10736 10733 10730 10726 10722 10717 10714 10711 10706 10701 10697 10692 10688 10684
10791 10791 10790 10789 10787 10786 10785 10785 10782 10780 10777 10776 10774 10771 10769 10766 10763 10761 10758 10755 10753 10750 10747 10744 10741 10737 10734 10731 10728 10726 10722 10719 10714 10710 10707 10704 10698 10693 10688 10683 10679 10674
10785 10784 10784 10782 10781 10779 10778 10778 10775 10773 10771 10769 10766 10764 10762 10759 10756 10753 10751 10748 10746 10743 10739 10737 10733 10730 10726 10723 10720 10718 10714 10710 10706 10702 10699 10695 10689 10684 10679 10673 10669 10665
10778 10777 10777 10775 10773 10772 10771 10770 10767 10765 10765 10762 10759 10757 10754 10751 10749 10747 10744 10741 10739 10736 10732 10729 10725 10722 10718 10715 10711 10709 10705 10701 10697 10693 10690 10686 10680 10676 10671 10665 10660 10656
10770 10769 10769 10767 10766 10764 10763 10762 10759 10758 10757 10754 10752 10750 10747 10745 10742 10740 10737 10735 10732 10729 10725 10721 10718 10714 10710 10706 10703 10699 10695 10691 10688 10684 10681 10677 10672 10668 10663 10657 10652 10647
10763 10762 10761 10759 10758 10757 10756 10754 10751 10750 10748 10746 10744 10741 10738 10737 10735 10732 10729 10727 10724 10720 10716 10712 10709 10706 10701 10698 10695 10690 10686 10682 10678 10674 10671 10667 10663 10659 10654 10648 10643 10637
10756 10755 10753 10752 10751 10749 10748 10746 10744 10742 10740 10738 10736 10732 10730 10729 10726 10723 10721 10718 10715 10711 10707 10704 10700 10697 10693 10689 10686 10681 10677 10673 10668 10664 10661 10657 10653 10649 10643 10637 10633 10628
10749 10747 10746 10746 10744 10742 10740 10738 10736 10734 10732 10731 10728 10725 10722 10720 10717 10715 10711 10709 10706 10702 10699 10696 10692 10688 10684 10680 10676 10672 10669 10664 10660 10656 10651 10647 10643 10638 10634 10628 10622 10617
10740 10739 10739 10738 10736 10734 10732 10730 10729 10727 10725 10723 10721 10717 10715 10712 10709 10706 10703 10700 10697 10694 10691 10687 10683 10679 10675 10671 10667 10662 10659 10655 10650 10647 10642 10637 10633 10628 10623 10618 10613 10608
10732 10731 10731 10730 10728 10726 10725 10723 10722 10720 10718 10715 10713 10710 10708 10704 10701 10698 10695 10692 10689 10685 10682 10678 10674 10671 10666 10662 10657 10653 10649 10644 10639 10636 10632 10628 10623 10618 10612 10607 10602 10597
10724 10723 10722 10721 10720 10719 10718 10716 10714 10712 10710 10708 10705 10703 10700 10697 10693 10690 10687 10684 10681 10677 10674 10669 10665 10661 10657 10653 10648 10643 10638 10633 10628 10625 10621 10617 10613 10609 10603 10597 10591 10585
10715 10714 10713 10712 10712 10711 10709 10707 10706 10704 10702 10699 10697 10695 10692 10688 10685 10682 10679 10676 10672 10668 10665 10660 10656 10651 10647 10643 10638 10633 10628 10623 10618 10615 10611 10607 10602 10598 10593 10587 10581 10575
10706 10705 10704 10704 10703 10702 10701 10699 10697 10695 10693 10691 10689 10687 10683 10679 10676 10673 10670 10667 10663 10659 10655 10651 10647 10642 10638 10634 10628 10623 10618 10613 10608 10605 10601 10597 10593 10588 10582 10576 10570 10564
10698 10697 10696 10696 10695 10694 10692 10690 10688 10686 10684 10683 10681 10678 10674 10670 10667 10664 10661 10657 10653 10650 10646 10641 10637 10633 10629 10624 10619 10613 10608 10602 10597 10593 10589 10586 10582 10577 10571 10565 10560 10553
10690 10689 10689 10688 10686 10685 10684 10682 10680 10677 10676 10675 10672 10669 10665 10661 10658 10655 10651 10648 10644 10640 10636 10632 10628 10623 10618 10613 10608 10602 10596 10590 10585 10581 10577 10574 10570 10565 10559 10553 10548 10541
10681 10681 10680 10679 10678 10677 10675 10673 10671 10669 10668 10666 10664 10660 10656 10652 10649 10645 10642 10638 10635 10631 10626 10622 10619 10614 10608 10602 10596 10590 10584 10578 10574 10570 10566 10562 10558 10553 10548 10542 10536 10530
10673 10672 10672 10671 10670 10669 10667 10664 10662 10660 10660 10658 10655 10652 10647 10643 10639 10635 10632 10629 10625 10621 10617 10612 10608 10603 10598 10591 10585 10580 10573 10567 10562 10558 10555 10551 10547 10542 10537 10531 10526 10519
10664 10664 10663 10662 10662 10660 10657 10655 10653 10652 10651 10650 10647 10644 10638 10634 10629 10625 10622 10619 10615 10612 10608 10603 10599 10594 10588 10582 10576 10570 10564 10558 10552 10547 10544 10540 10536 10532 10527 10521 10516 10510
10655 10655 10655 10654 10653 10651 10648 10646 10644 10644 10643 10642 10639 10635 10630 10625 10620 10616 10613 10609 10605 10602 10599 10595 10591 10586 10580 10574 10568 10562 10556 10550 10544 10538 10534 10530 10526 10522 10518 10513 10508 10502
10645 10646 10646 10646 10644 10642 10639 10637 10636 10636 10635 10633 10630 10627 10622 10616 10611 10607 10603 10599 10596 10593 10589 10586 10581 10576 10571 10565 10560 10554 10548 10542 10536 10530 10525 10521 10517 10513 10509 10506 10501 10496
10636 10637 10637 10636 10634 10631 10628 10627 10627 10627 10625 10623 10621 10617 10612 10608 10603 10598 10593 10589 10586 10582 10579 10575 10570 10566 10561 10556 10551 10545 10539 10533 10528 10523 10517 10513 10510 10505 10501 10497 10493 10489
10627 10628 10628 10626 10624 10621 10618 10617 10617 10617 10615 10613 10611 10608 10603 10599 10595 10589 10584 10580 10576 10572 10568 10564 10560 10556 10551 10546 10541 10536 10530 10524 10520 10515 10511 10506 10501 10497 10493 10488 10485 10481
10618 10619 10618 10616 10614 10610 10607 10607 10608 10607 10605 10603 10601 10598 10594 10591 10587 10581 10575 10571 10567 10563 10559 10554 10550 10546 10541 10536 10531 10526 10520 10515 10510 10507 10503 10499 10495 10490 10486 10482 10478 10475
10609 10610 10608 10606 10603 10599 10598 10598 10598 10596 10594 10593 10591 10589 10585 10581 10577 10573 10567 10562 10557 10553 10549 10544 10540 10536 10530 10525 10521 10516 10510 10504 10500 10498 10495 10492 10489 10485 10481 10477 10473 10470
10599 10599 10597 10594 10591 10589 10588 10588 10587 10586 10584 10583 10582 10579 10575 10570 10566 10563 10559 10554 10549 10545 10541 10535 10530 10525 10520 10515 10511 10507 10502 10497 10493 10490 10487 10484 10482 10479 10475 10472 10469 10465